Tracking 18796 objects as of 20-September-2017
HD Live streaming from Space Station
objects crossing your sky now

FLOCK 2K 14

Track FLOCK 2K 14 now!
10-day predictions
FLOCK 2K 14 is classified as:


NORAD ID: 42892
Int'l Code: 2017-042BV
Perigee: 461.5 km
Apogee: 480.2 km
Inclination: 97.0 °
Period: 93.9 minutes
Semi major axis: 6841 km
RCS: Unknown
Launch date: July 14, 2017
Source: United States (US)
Launch site: TYURATAM MISSILE AND SPACE COMPLEX (TTMTR)
aabbcc
Your satellite tracking list
Your tracking list is empty





NASA's NSSDC Master Catalog

Two Line Element Set (TLE):
1 42892U 17042BV  17263.20369443  .00004354  00000-0  13404-3 0  9990
2 42892  96.9965 168.6283 0013640   4.8764 355.2610 15.34052768 10215
Source of the keplerian elements: AFSPC